Location: Palombina Nuova
(43.6167°N, 13.4000°E)
Time: 00:26:21
(UTC+00:00)

Okean O Rocket - Pass Details

Date: 17 February 2020
Orbit: 622 x 645 km, 98.2° (Epoch: 09 April)

Event Time Altitude Azimuth Distance (km) Brightness Sun altitude
Rises 04:56:32 0° 13° (NNE) 2,936 5.1 -12.7°
Reaches altitude 10° 04:58:45 10° 13° (NNE) 2,020 4.3 -12.3°
Maximum altitude 05:03:09 90° 65° (ENE) 634 1.6 -11.5°
Drops below altitude 10° 05:07:30 10° 195° (SSW) 1,992 4.1 -10.7°
Sets 05:09:40 0° 195° (SSW) 2,892 4.9 -10.3°
